星链-5473 (STARLINK-5473 )

导读

STARLINK-5473是美国太空探索技术公司(SpaceX)旗下星链(Starlink)星座的一颗低轨互联网通信卫星,于2023年2月17日发射入轨,属于星链第二代迷你卫星(Starlink v2.0 mini)。 它由SpaceX制造运营,运行在近地轨道,旨在为全球偏远地区提供低延迟高速宽带互联网接入,是SpaceX构建全球覆盖巨型低轨卫星星座计划中的一员,目前仍在轨正常工作,卫星搭载氪离子霍尔推进器用于轨道调整和维持。

基本信息
目录编号:
55663
目录名称:
STARLINK-5473
国际标识:
2023-021AM
轨道中心:
EARTH
卫星名称:
星链-5473
卫星全名:
星链-5473 (STARLINK-5473 )
卫星状态:
在轨 (已飞行1214 天)
发射日期:
2023-02-17 UTC
国别 :
美国 (US)
星等 :
--
轨道信息
数据来源 国际轨道数据
星历时间: 2026-06-14T22:47:57+0800
13小时前
查看轨道信息
半长轴: 6950.188km
偏心率: 0.0003086
轨道倾角: 69.999°
近地点辐角 268.967°
升交点赤经 280.050°
平近点角 91.114°
近地点: 569.906km
远地点: 574.196km
周期: 96.107分钟
每日圈数: 14.983318
详细信息
固有亮度:
5
最大亮度:
2.5
卫星平台:
Starlink v1.5
覆盖范围:
全球
运营商:
太空探索技术公司
运营商所在国:
美国
制造商(研发单位):
太空探索技术公司
制造商所在国:
美国
使用方式:
暂无
卫星简介
星链(Starlink)计划是由太空探索技术公司(SpaceX)提出的一个巨型低轨卫星互联网星座项目,计划在2019年至2024年间在太空搭建由约1.2万颗卫星组成的“星链”网络,其中1584颗将部署在地球上空550千米处的近地轨道,并从2020年开始工作。该卫星仍在工作。
2D轨道图
3D轨道图
轨道高度分析图
轨道倾角分析图
轨道综合分析图
查看轨道综合分析图